Find Beidou DW 21

NORAD ID: 41315 Int'l Des: 2016-006 Owner: CNSA Country: CN Constellation: BeiDou operational
MEOCIRCULAR

Current View

Loading 3D Globe...

About Beidou DW 21

Description loading...

Upcoming Passes

Passes for default location (London). Set your location on the main map for personalized predictions.

Altitude History

Loading altitude history...

Two-Line Element Set

1 41315U 16006A 26148.16473770 -.00000090 00000-0 00000+0 0 9992
2 41315 56.6904 64.2970 0004421 308.9911 50.9606 1.86230804 70225
Epoch: May 28, 2026 • Age: 87 hours

Current Status

Altitude 21540.6 km
Velocity 3.78 km/s
Sub-Earth Point -54.72°S, 145.41°E
Launch Date Feb 1, 2016
Age 10.3 years
Type navigation

Technical Details

Classification Payload
Mass 1014.00 kg
Dry Mass 850.00 kg
Total Mass 1014.00 kg
Length 2.20 m
Diameter 1.70 m
Span 10.00 m
Shape Box + 2 Pan
Manufacturer SECM
Bus Type BD-3M2
Phase Status In Orbit
Owner/State CNSA/CN

Most Searched